Location: Unspecified
(0.0000°N, 0.0000°E)
Time: 04:13:30
(UTC+00:00)

Isis 2 - Visible Passes

Search period start: 14 May 2026 00:00
Search period end: 24 May 2026 00:00
Orbit: 1357 x 1424 km, 88.2° (Epoch: 13 May)

Date Brightness Start Highest point End Pass type
(mag) Time Alt. Az. Time Alt. Az. Time Alt. Az.
14 May 8.6 04:58:34 10° SSE 05:05:53 34° E 05:13:10 10° NNE visible
14 May 9.2 19:12:37 10° NW 19:17:40 18° W 19:22:43 10° SW visible
16 May 9.3 04:21:40 10° SE 04:26:57 18° E 04:32:11 10° NE visible
16 May 8.5 18:31:40 10° NNW 18:38:41 34° W 18:45:45 10° SSW visible
17 May 8.1 04:56:17 10° SSE 05:04:03 43° E 05:11:47 10° NNE visible
17 May 9.4 19:12:17 10° WNW 19:15:47 13° W 19:19:19 10° WSW visible
19 May 9.0 04:18:49 10° SE 04:25:06 24° E 04:31:21 10° NE visible
19 May 8.9 18:30:24 10° NNW 18:36:49 27° W 18:43:17 10° SW visible
20 May 7.6 04:54:07 10° SSE 05:02:13 54° E 05:10:16 10° NNE visible
21 May 9.5 03:43:46 10° ESE 03:46:10 11° E 03:48:32 10° ENE visible
21 May 6.8 05:31:00 10° S 05:39:21 74° W 05:47:41 10° N visible
22 May 8.6 04:16:14 10° SE 04:23:16 30° E 04:30:14 10° NNE visible
22 May 9.2 18:29:22 10° NW 18:34:57 21° W 18:40:35 10° SW visible
23 May 7.2 04:52:05 10° SSE 05:00:23 67° E 05:08:39 10° N visible
